Regional Weather Roundup
Issued by NWS Goodland, KS

Home | Current Version | Previous Version | Graphics & Text | Print | Product List | Glossary On
Versions: 1 2 3 4 5 6 7 8 9 10 11 12 13 14 15 16 17 18 19 20 21 22 23 24 25 26 27 28 29 30 31 32 33 34 35 36 37 38 39 40 41 42 43 44 45 46 47 48 49 50
000
ASUS43 KGLD 020259
RWRGLD

GOODLAND FORECAST AREA HOURLY WEATHER ROUNDUP
NATIONAL WEATHER SERVICE GOODLAND KS
900 PM MDT SUN MAY 01 2016

...OFFICIAL OBSERVATIONS...

CITY           SKY/WX    TMP DP  RH WIND       PRES   REMARKS
GOODLAND KS    CLEAR     38  32  79 NW10      30.23S
HILL CITY KS   CLOUDY    46  40  79 CALM      30.22R
IMPERIAL NEB   CLEAR     41  33  73 NW8       30.25R
MCCOOK NEB     MOCLDY    49  37  63 CALM      30.21R
AKRON CO       CLEAR     36  26  67 CALM      30.27R
BURLINGTON CO  CLOUDY    35  27  72 NW8       30.26R
LIMON CO       CLEAR     29  27  92 N6        30.28R
$$

...UNOFFICIAL OBSERVATIONS...

CITY           SKY/WX    TMP DP  RH WIND       PRES   REMARKS
COLBY KS       CLOUDY    45  45 100 CALM      30.24R
LENORA KS        N/A     45  32  60 MISG        N/A
NORTON KS      CLEAR     41  36  81 CALM      30.20R
SHARON SPRINGS   N/A     43  36  75 NW10        N/A
KIT CARSON CO    N/A     38  29  70 MISG        N/A
YUMA CO          N/A     36  31  82 CALM        N/A
$$



USA.gov is the U.S. government's official web portal to all federal, state and local government web resources and services.